sat.trackr.live / text

‹ back to catalog

STARLINK-11550 [DTC]

NORAD 63052 · 2025-035A

PAYLOAD ACTIVE UNKNOWN

§ Identity

Operator
Country
US
Launch date
2025-02-21
Launch site
AFETR
Launch vehicle
Mass (kg)
RCS (m²)

Purposes: comms

External: N2YO · Heavens-Above · Gunter

§ Orbital elements

Epoch: 2026-05-25T01:19:58.555776Z

Period
91.67 min
Inclination
43.0000°
Eccentricity
0.0001587
Mean motion
15.70879999 rev/d
Perigee alt
355.3 km
Apogee alt
357.4 km
Semi-major
6,734.5 km
B*
1.2540e-3
RAAN
274.8195°
Arg perigee
40.5277°
Mean anomaly
319.5708°
Rev number
7,323

§ Raw data

STARLINK-11550 [DTC]1 63052U 25035A   26145.05553884  .00163945  00000+0  12540-2 0  99982 63052  43.0000 274.8195 0001587  40.5277 319.5708 15.70879999 73239

JSON: /api/v1/satellites/63052 · /tle

For live sub-satellite position, see the globe view (requires WebGL).

§ Visibility from observer

Set your observer location to see the next 7 days of passes ≥ 10°. The values pass through the URL so the page stays shareable.

No JS? Fill the form by hand. The geolocation button needs JavaScript.